When you browse on this site, cookies collect data to enhance your experience and personalize the content and advertising you see.
Visit our Privacy Policy to learn more. By continuing to use the site, you agree to this use of cookies and data.
  • In Deutschland
  • Länderverzeichnis
  • Für 7 Tage
  • Wassertemperatur
  • Satellitenkarten
  • Wetterkarte
  • Widgets
  • user-avatar
    Anmelden

    Stündliche Wetter Tibissa

    Heute, 21 Januar, Montag

    Zeit Temperatur Niederschläge Wind Luftdruck Luftfeuchtigkeit
    00:00 +3°C° 0 mm 5 m/S 678 mmHg 83%
    01:00 +3°C° 0 mm 5 m/S 679 mmHg 81%
    02:00 +3°C° 0 mm 5 m/S 678 mmHg 83%
    03:00 +5°C° 0 mm 5 m/S 678 mmHg 84%
    04:00 +5°C° 0 mm 4 m/S 678 mmHg 86%
    05:00 +4°C° 0 mm 4 m/S 678 mmHg 87%
    06:00 +4°C° 0 mm 3 m/S 678 mmHg 88%
    07:00 +4°C° 0 mm 3 m/S 678 mmHg 89%
    08:00 +5°C° 0 mm 3 m/S 678 mmHg 82%
    09:00 +7°C° 0 mm 3 m/S 678 mmHg 76%
    10:00 +9°C° 0 mm 3 m/S 679 mmHg 69%
    11:00 +8°C° 0 mm 4 m/S 679 mmHg 63%
    12:00 +9°C° 0 mm 5 m/S 679 mmHg 57%
    13:00 +10°C° 0 mm 7 m/S 679 mmHg 51%
    14:00 +10°C° 0.2 mm 7 m/S 679 mmHg 55%
    15:00 +9°C° 0.2 mm 7 m/S 679 mmHg 59%
    16:00 +7°C° 0.2 mm 8 m/S 679 mmHg 63%
    17:00 +6°C° 0.2 mm 8 m/S 679 mmHg 69%
    18:00 +5°C° 0.2 mm 8 m/S 680 mmHg 74%
    19:00 +4°C° 0.2 mm 7 m/S 680 mmHg 79%
    20:00 +4°C° 0 mm 7 m/S 680 mmHg 81%
    21:00 +3°C° 0 mm 6 m/S 680 mmHg 82%
    22:00 +3°C° 0 mm 6 m/S 681 mmHg 84%
    23:00 +2°C° 0 mm 5 m/S 681 mmHg 87%

    Morgen, 22 Januar, Dienstag

    Zeit Temperatur Niederschläge Wind Luftdruck Luftfeuchtigkeit
    00:00 +3°C° 0 mm 4 m/S 681 mmHg 89%
    01:00 +1°C° 0 mm 4 m/S 681 mmHg 91%
    02:00 +1°C° 0 mm 4 m/S 681 mmHg 91%
    03:00 +1°C° 0 mm 4 m/S 681 mmHg 92%
    04:00 +2°C° 0 mm 3 m/S 681 mmHg 92%
    05:00 +2°C° 0 mm 3 m/S 681 mmHg 93%
    06:00 +1°C° 0 mm 3 m/S 681 mmHg 94%
    07:00 +2°C° 0 mm 2 m/S 681 mmHg 94%
    08:00 +2°C° 0 mm 3 m/S 681 mmHg 85%
    09:00 +3°C° 0 mm 3 m/S 681 mmHg 77%
    10:00 +4°C° 0 mm 3 m/S 682 mmHg 68%
    11:00 +5°C° 0 mm 3 m/S 681 mmHg 62%
    12:00 +5°C° 0 mm 3 m/S 681 mmHg 56%
    13:00 +7°C° 0 mm 3 m/S 681 mmHg 50%
    14:00 +7°C° 0.2 mm 2 m/S 680 mmHg 50%
    15:00 +7°C° 0.2 mm 2 m/S 680 mmHg 49%
    16:00 +8°C° 0.2 mm 2 m/S 679 mmHg 49%
    17:00 +7°C° 0.3 mm 2 m/S 679 mmHg 55%
    18:00 +7°C° 0.3 mm 1 m/S 679 mmHg 61%
    19:00 +7°C° 0.3 mm 1 m/S 679 mmHg 67%
    20:00 +6°C° 0.2 mm 1 m/S 679 mmHg 69%
    21:00 +6°C° 0.2 mm 1 m/S 679 mmHg 70%
    22:00 +5°C° 0.2 mm 2 m/S 678 mmHg 72%
    23:00 +4°C° 0 mm 2 m/S 678 mmHg 74%

    übermorgen, 23 Januar, Mittwoch

    Zeit Temperatur Niederschläge Wind Luftdruck Luftfeuchtigkeit
    00:00 +4°C° 0 mm 1 m/S 677 mmHg 76%
    01:00 +4°C° 0 mm 1 m/S 677 mmHg 78%
    02:00 +3°C° 0 mm 1 m/S 676 mmHg 78%
    03:00 +3°C° 0 mm 1 m/S 676 mmHg 79%
    04:00 +3°C° 0 mm 1 m/S 675 mmHg 79%
    05:00 +3°C° 0 mm 1 m/S 675 mmHg 78%
    06:00 +3°C° 0 mm 1 m/S 674 mmHg 77%
    07:00 +3°C° 0 mm 1 m/S 674 mmHg 76%
    08:00 +3°C° 0 mm 2 m/S 674 mmHg 72%
    09:00 +3°C° 0 mm 3 m/S 674 mmHg 67%
    10:00 +4°C° 0 mm 4 m/S 675 mmHg 63%
    11:00 +3°C° 0.2 mm 5 m/S 674 mmHg 63%
    12:00 +4°C° 0.2 mm 6 m/S 674 mmHg 63%
    13:00 +4°C° 0.2 mm 8 m/S 673 mmHg 63%
    14:00 +3°C° 0 mm 9 m/S 673 mmHg 61%
    15:00 +3°C° 0 mm 9 m/S 673 mmHg 58%
    16:00 +5°C° 0 mm 10 m/S 672 mmHg 55%
    17:00 +3°C° 0 mm 9 m/S 672 mmHg 59%
    18:00 +3°C° 0 mm 7 m/S 672 mmHg 63%
    19:00 +2°C° 0 mm 6 m/S 671 mmHg 68%
    20:00 +2°C° 0 mm 7 m/S 671 mmHg 69%
    21:00 +1°C° 0 mm 8 m/S 670 mmHg 70%
    22:00 +1°C° 0 mm 8 m/S 670 mmHg 70%
    23:00 +1°C° 0.4 mm 9 m/S 670 mmHg 73%

    24 Januar, Donnerstag

    Zeit Temperatur Niederschläge Wind Luftdruck Luftfeuchtigkeit
    00:00 +1°C° 0.4 mm 9 m/S 669 mmHg 76%
    01:00 +2°C° 0.4 mm 10 m/S 669 mmHg 79%
    02:00 0°C° 0.7 mm 10 m/S 668 mmHg 83%
    03:00 -1°C° 0.7 mm 9 m/S 667 mmHg 87%
    04:00 -3°C° 0.7 mm 9 m/S 667 mmHg 91%
    05:00 -4°C° 0.4 mm 9 m/S 667 mmHg 88%
    06:00 -4°C° 0.4 mm 10 m/S 667 mmHg 86%
    07:00 -4°C° 0.4 mm 10 m/S 667 mmHg 84%
    08:00 -5°C° 0.1 mm 12 m/S 666 mmHg 80%
    09:00 -5°C° 0.1 mm 14 m/S 666 mmHg 76%
    10:00 -5°C° 0.1 mm 16 m/S 666 mmHg 72%
    11:00 -5°C° 0.1 mm 19 m/S 665 mmHg 70%
    12:00 -4°C° 0.1 mm 22 m/S 665 mmHg 68%
    13:00 -3°C° 0.1 mm 25 m/S 664 mmHg 66%
    14:00 -2°C° 0.5 mm 23 m/S 665 mmHg 70%
    15:00 -4°C° 0.5 mm 21 m/S 665 mmHg 75%
    16:00 -3°C° 0.5 mm 19 m/S 666 mmHg 79%
    17:00 -3°C° 1.6 mm 16 m/S 667 mmHg 84%
    18:00 -2°C° 1.6 mm 14 m/S 668 mmHg 90%
    19:00 -3°C° 1.6 mm 11 m/S 669 mmHg 95%
    20:00 -3°C° 0.2 mm 10 m/S 670 mmHg 95%
    21:00 -3°C° 0.2 mm 9 m/S 670 mmHg 95%
    22:00 -2°C° 0.2 mm 8 m/S 671 mmHg 95%
    23:00 -2°C° 0 mm 8 m/S 671 mmHg 96%

    25 Januar, Freitag

    Zeit Temperatur Niederschläge Wind Luftdruck Luftfeuchtigkeit
    00:00 -2°C° 0 mm 7 m/S 672 mmHg 96%
    01:00 -2°C° 0 mm 7 m/S 672 mmHg 96%
    02:00 -2°C° 0 mm 8 m/S 673 mmHg 97%
    03:00 -1°C° 0 mm 8 m/S 673 mmHg 98%
    04:00 -1°C° 0 mm 9 m/S 674 mmHg 98%
    05:00 -2°C° 0.1 mm 11 m/S 674 mmHg 97%
    06:00 -2°C° 0.1 mm 12 m/S 675 mmHg 96%
    07:00 -2°C° 0.1 mm 13 m/S 675 mmHg 95%
    08:00 -2°C° 0.1 mm 13 m/S 676 mmHg 94%
    09:00 -2°C° 0.1 mm 12 m/S 677 mmHg 94%
    10:00 -2°C° 0.1 mm 11 m/S 677 mmHg 93%
    11:00 -2°C° 0.1 mm 11 m/S 678 mmHg 92%
    12:00 -2°C° 0.1 mm 12 m/S 678 mmHg 92%
    13:00 -2°C° 0.1 mm 12 m/S 678 mmHg 91%
    14:00 -2°C° 0.1 mm 11 m/S 679 mmHg 90%
    15:00 -1°C° 0.1 mm 11 m/S 679 mmHg 90%
    16:00 -1°C° 0.1 mm 11 m/S 679 mmHg 89%
    17:00 -2°C° 0.1 mm 10 m/S 679 mmHg 90%
    18:00 -2°C° 0.1 mm 10 m/S 680 mmHg 91%
    19:00 -1°C° 0.1 mm 9 m/S 680 mmHg 92%
    20:00 -1°C° 0.1 mm 9 m/S 681 mmHg 92%
    21:00 -1°C° 0.1 mm 8 m/S 681 mmHg 93%
    22:00 -2°C° 0.1 mm 8 m/S 682 mmHg 93%
    23:00 -2°C° 0.1 mm 8 m/S 682 mmHg 93%

    26 Januar, Samstag

    Zeit Temperatur Niederschläge Wind Luftdruck Luftfeuchtigkeit
    00:00 -3°C° 0.1 mm 9 m/S 682 mmHg 93%
    01:00 -3°C° 0.1 mm 9 m/S 682 mmHg 93%
    02:00 -2°C° 0.1 mm 8 m/S 682 mmHg 93%
    03:00 -2°C° 0.1 mm 8 m/S 682 mmHg 93%
    04:00 -2°C° 0.1 mm 7 m/S 682 mmHg 93%
    05:00 -2°C° 0 mm 7 m/S 682 mmHg 93%
    06:00 -2°C° 0 mm 7 m/S 682 mmHg 92%
    07:00 -2°C° 0 mm 7 m/S 682 mmHg 92%
    08:00 -2°C° 0 mm 7 m/S 683 mmHg 91%
    09:00 -1°C° 0 mm 8 m/S 683 mmHg 89%
    10:00 -1°C° 0 mm 9 m/S 684 mmHg 87%
    11:00 0°C° 0 mm 9 m/S 684 mmHg 85%
    12:00 +1°C° 0 mm 9 m/S 684 mmHg 82%
    13:00 +1°C° 0 mm 10 m/S 684 mmHg 79%
    14:00 +2°C° 0 mm 9 m/S 684 mmHg 79%
    15:00 +2°C° 0 mm 9 m/S 683 mmHg 78%
    16:00 +2°C° 0 mm 9 m/S 683 mmHg 77%
    17:00 +2°C° 0 mm 7 m/S 684 mmHg 79%
    18:00 +2°C° 0 mm 6 m/S 684 mmHg 81%
    19:00 +1°C° 0 mm 5 m/S 684 mmHg 83%
    20:00 +1°C° 0 mm 5 m/S 684 mmHg 82%
    21:00 +1°C° 0 mm 4 m/S 684 mmHg 82%
    22:00 +1°C° 0 mm 4 m/S 684 mmHg 81%
    23:00 0°C° 0 mm 4 m/S 684 mmHg 82%
    Mehr zeigen